{"data":{"norad_id":62161,"epoch":"2026-05-25T04:59:50.410176Z","epoch_age_seconds":54079,"freshness":"FRESH","line1":"1 62161U 24224Y   26145.20822234  .00019166  00000+0  70380-3 0  9994","line2":"2 62161  42.9999  89.3319 0001066 271.9168  88.1562 15.27597263 84133","mean_motion":15.27597263,"eccentricity":0.0001066,"inclination_deg":42.9999,"raan_deg":89.3319,"arg_perigee_deg":271.9168,"mean_anomaly_deg":88.1562,"bstar":0.0007038,"rev_number":8413,"period_min":94.265683428368,"perigee_km":482.26600796656,"apogee_km":483.72880182168,"semimajor_km":6861.1344048941,"source":"CELESTRAK","updated_at":"2026-05-25T13:38:19.598656Z"}}